Regional Weather Roundup
Issued by NWS

Home | Current Version | Previous Version | Text Only | Print | Product List | Glossary On
Versions: 1 2 3 4 5 6 7 8 9 10 11 12 13 14 15 16 17 18 19 20 21 22 23 24 25 26 27 28
000
ASUS46 KSEW 241410
RWRWA

WASHINGTON REGIONAL WEATHER ROUNDUP
NATIONAL WEATHER SERVICE SEATTLE WA
700 AM PDT WED AUG 24 2016

NOTE:"FAIR" INDICATES FEW OR NO CLOUDS BELOW 12,000 FEET WITH NO
SIGNIFICANT WEATHER AND/OR OBSTRUCTIONS TO VISIBILITY.

WAZ505-507>509-241500-
SEATTLE, TACOMA, EVERETT, AND VICINITY

CITY           SKY/WX    TMP DP  RH WIND       PRES   REMARKS
EVERETT        CLEAR     58  52  80 N6        30.24R
BOEING FIELD   CLEAR     57  54  89 NW6       30.21S
RENTON         CLEAR     57  53  86 CALM      30.22R
SEATAC AIRPORT PTCLDY    62  55  77 N5        30.23R
JBLM-MCCHORD   CLEAR     49  49  99 S1        30.23R
PUYALLUP         N/A     50  50 100 CALM      30.23R
BREMERTON      CLEAR     54  48  82 CALM      30.26R
JBLM-FT LEWIS  CLEAR     51  49  91 CALM      30.22R
TACOMA NARROWS CLEAR     56  50  80 CALM      30.22S
$$

WAZ001-503-506-510-514-515-241500-
NORTH INTERIOR

CITY           SKY/WX    TMP DP  RH WIND       PRES   REMARKS
BELLINGHAM     CLEAR     52  51  97 CALM      30.24R
FRIDAY HARBOR  CLEAR     63  54  72 N8        30.25R
EASTSOUND      CLEAR     59  55  88 CALM      30.24R
PORT ANGELES   CLEAR     53  46  77 SW5       30.26R
EDIZ HOOK      FAIR      58  47  68 S5        30.25R
PORT TOWNSEND  FAIR      63  52  67 N6G12     30.24S
NAS WHIDBEY    PTCLDY    55  50  83 W5        30.28R
ARLINGTON      CLEAR     48  39  71 NW3       30.25S
BURLINGTON     CLEAR     52  50  93 NW5       30.24R
$$

WAZ020-022-039-040-504-511-512-241500-
SOUTHWEST INTERIOR

CITY           SKY/WX    TMP DP  RH WIND       PRES   REMARKS
SHELTON        CLEAR     47  43  86 CALM      30.21R
OLYMPIA        CLEAR     49  46  90 CALM      30.22R
CHEHALIS       FAIR      52  52 100 CALM      30.22R
KELSO          CLEAR     53  49  86 CALM      30.20R FOG
VANCOUVER      CLEAR     57  50  77 CALM      30.17R
SCAPPOOSE, OR  CLEAR     56  50  80 CALM      30.16R
PORTLAND, OR   CLEAR     59  51  75 CALM      30.18R
$$

WAZ021-516-517-241500-
WASHINGTON COAST

CITY           SKY/WX    TMP DP  RH WIND       PRES   REMARKS
FORKS          CLEAR     49  48  97 E3        30.21R
HOQUIAM        CLEAR     52  51  97 NE7       30.22R FOG
ASTORIA, OR    FOG       52  50  93 CALM      30.18S VSB<1/4
$$

WAZ019-023-024-040-518-519-241500-
CASCADE MOUNTAINS AND COLUMBIA GORGE

CITY           SKY/WX    TMP DP  RH WIND       PRES   REMARKS
STAMPEDE PASS  CLEAR     57  43  59 CALM      30.32R
TROUTDALE, OR  CLEAR     55  51  86 CALM      30.17R
THE DALLES, OR CLEAR     57  46  66 SE5       30.18R
$$

WAZ026-027-041>044-520-521-241500-
EAST SLOPES

CITY           SKY/WX    TMP DP  RH WIND       PRES   REMARKS
OMAK           CLEAR     61  41  47 NW5       30.24R
WENATCHEE      CLEAR     62  49  62 NW8       30.22R
ELLENSBURG     PTCLDY    54  46  74 CALM      30.23R
YAKIMA         CLEAR     55  44  66 W8        30.21R
$$

WAZ028-034-035-241500-
COLUMBIA BASIN

CITY           SKY/WX    TMP DP  RH WIND       PRES   REMARKS
EPHRATA        CLEAR     66  41  40 N8        30.19R
MOSES LAKE     CLEAR     57  40  52 N3        30.20R
PASCO          CLEAR     54  48  80 CALM      30.17R
HERMISTON, OR  CLEAR     53  41  63 S5        30.17R
$$

WAZ036>038-241500-
NORTHEAST WASHINGTON

CITY           SKY/WX    TMP DP  RH WIND       PRES   REMARKS
SPOKANE GEIGER PTCLDY    58  46  64 NE8       30.23R
SPOKANE FELTS  CLEAR     54  45  71 CALM      30.23R
FAIRCHILD AFB  CLEAR     54  45  70 NE6       30.22R
COEURDALENE,ID CLEAR     55  46  71 NE12      30.22R
DEER PARK      CLEAR     56  46  69 N7        30.24R
$$

WAZ029>033-241500-
SOUTHEAST WASHINGTON

CITY           SKY/WX    TMP DP  RH WIND       PRES   REMARKS
PULLMAN        CLEAR     49  39  68 CALM      30.22S
LEWISTON, ID   CLEAR     58  42  55 CALM      30.19R
WALLA WALLA    CLEAR     59  42  53 CALM      30.17R
PENDLETON, OR  CLEAR     56  40  55 SE8       30.19R
$$




USA.gov is the U.S. government's official web portal to all federal, state and local government web resources and services.